Regional Weather Roundup
Issued by NWS

Home | Current Version | Previous Version | Text Only | Print | Product List | Glossary On
Versions: 1 2 3 4 5 6 7 8 9 10 11 12 13 14 15 16 17 18 19 20 21 22 23 24 25 26 27 28 29 30 31 32 33 34 35 36 37 38 39 40 41 42 43 44 45 46 47 48 49 50
000
ASUS45 KABQ 040610
RWRNM
NEW MEXICO REGIONAL WEATHER ROUNDUP
NATIONAL WEATHER SERVICE ALBUQUERQUE NM
1200 AM MDT FRI SEP 04 2015

NOTE: "FAIR" MEANS FEW OR NO CLOUDS BELOW 12,000 FEET AGL WITH NO
       SIGNIFICANT WEATHER OR OBSTRUCTIONS TO VISION.

      THIS PRODUCT IS RELEASED AS TWO VERSIONS.  ONE VERSION NEAR
      THE TOP OF THE HOUR CONTAINING PRELIMINARY DATA FROM ALBUQUERQUE
      AND OTHER STATIONS.  A FINAL VERSION WITH ADDITIONAL DATA IS
      ISSUED ABOUT 10 MINUTES AFTER THE HOUR.

NMZ501-503-504-510>518-040700-
NORTHWEST PLATEAU/NORTHCENTRAL MOUNTAINS

CITY           SKY/WX    TMP DP  RH WIND       PRES   REMARKS
FARMINGTON     CLEAR     69  47  45 W6        30.05R
6HR MIN TEMP:  69; 6HR MAX TEMP:  83;

LOS ALAMOS     PTCLDY    66  42  42 S12G20    30.19F
SANTA FE       PTCLDY    70  43  37 W14       30.13F
6HR MIN TEMP:  67; 6HR MAX TEMP:  83;

TAOS           PTCLDY    55  37  50 E5        30.20F
ANGEL FIRE     FAIR      41  39  91 W5        30.29S

$$
NMZ402-403-502-505>509-040700-
WESTCENTRAL MOUNTAINS/SOUTHWEST MOUNTAINS

CITY           SKY/WX    TMP DP  RH WIND       PRES   REMARKS
GALLUP         CLOUDY    61  48  62 SW9       30.17F
6HR MIN TEMP:  61; 6HR MAX TEMP:  76;

GRANTS         CLOUDY    63  48  58 SE5       30.18F
SILVER CITY      N/A     63  57  82 NW6       30.15F

$$
NMZ407-409-411-412-040700-
SOUTHERN DESERTS

CITY           SKY/WX    TMP DP  RH WIND       PRES   REMARKS
LORDSBURG      CLOUDY    68  59  73 CALM      30.06F
DEMING         MOCLDY    73  55  53 W8        30.06F
6HR MIN TEMP:  73; 6HR MAX TEMP:  84;

LAS CRUCES     MOCLDY    73  53  49 W8        30.06F
HOLLOMAN AFB   PTCLDY    75  52  43 NE2       30.00S
ALAMOGORDO     PTCLDY    75  50  41 CALM      30.02F
T OR C         CLOUDY    69  56  62 NW13      30.05F
6HR MIN TEMP:  68; 6HR MAX TEMP:  80; 6HR PCP:  0.03;


$$
NMZ519>523-040700-
CENTRAL VALLEYS/CENTRAL HIGHLANDS

CITY           SKY/WX    TMP DP  RH WIND       PRES   REMARKS
ALBUQUERQUE    CLOUDY    75  48  38 S8        30.10S
6HR MIN TEMP:  75; 6HR MAX TEMP:  86;

DOUBLE EAGLE   CLOUDY    71  47  43 SW10      30.12S
MORIARTY ARPT  FAIR      63  42  46 CALM      30.15S
6HR MIN TEMP:  60; 6HR MAX TEMP:  83;

CLINES CORNERS PTCLDY    61  43  51 W13       30.18S
6HR MIN TEMP:  59; 6HR MAX TEMP:  78;

BELEN          FAIR      71  50  48 SW8       30.08F
6HR MIN TEMP:  71; 6HR MAX TEMP:  84;

SOCORRO        FAIR      69  53  56 CALM      30.06S
6HR MIN TEMP:  69; 6HR MAX TEMP:  78;


$$
NMZ524>526-539-540-040700-
SOUTHCENTRAL MOUNTAINS

CITY           SKY/WX    TMP DP  RH WIND       PRES   REMARKS
RUIDOSO        MOCLDY    64  46  52 W5        30.22F

$$
NMZ527>531-040700-
NORTHEAST HIGHLANDS/NORTHEAST PLAINS

CITY           SKY/WX    TMP DP  RH WIND       PRES   REMARKS
LAS VEGAS      PTCLDY    60  43  53 SW8       30.16S
6HR MIN TEMP:  60; 6HR MAX TEMP:  80;

RATON          PTCLDY    59  48  67 NE9       30.09R
6HR MIN TEMP:  59; 6HR MAX TEMP:  83;

CLAYTON        CLOUDY    72  52  49 SW9       30.00S
6HR MIN TEMP:  66; 6HR MAX TEMP:  85;


$$
NMZ532>537-040700-
EASTCENTRAL PLAINS

CITY           SKY/WX    TMP DP  RH WIND       PRES   REMARKS
TUCUMCARI      PTCLDY    78  49  35 S12       29.96R
6HR MIN TEMP:  77; 6HR MAX TEMP:  91;

CANNON AFB     MOCLDY    75  51  43 S8        30.01F
6HR MIN TEMP:  75; 6HR MAX TEMP:  88; 6HR PCP: TRACE;

CLOVIS AIRPORT MOCLDY    73  50  43 S7        30.03S

$$
NMZ028-029-538-040700-
SOUTHEAST PLAINS

CITY           SKY/WX    TMP DP  RH WIND       PRES   REMARKS
ROSWELL        MOCLDY    81  47  30 S15       29.95S
6HR MIN TEMP:  81; 6HR MAX TEMP:  93;

ARTESIA        MOCLDY    81  48  32 S16       29.96F
CARLSBAD       PTCLDY    82  47  29 S8        29.95F
6HR MIN TEMP:  80; 6HR MAX TEMP:  94;

HOBBS            N/A     73  50  43 S7        30.00S


$$



USA.gov is the U.S. government's official web portal to all federal, state and local government web resources and services.